Location: Sternwarte_Laufen
(47.9344°N, 12.9346°E)
Time: 06:03:09
(UTC+02:00)

Tiangong - Visible Passes

Search period start: 16 July 2025 00:00
Search period end: 26 July 2025 00:00
Orbit: 391 x 403 km, 41.5° (Epoch: 15 July)

Date Brightness Start Highest point End Pass type
(mag) Time Alt. Az. Time Alt. Az. Time Alt. Az.
17 Jul -0.1 22:04:03 10° S 22:05:29 12° SSE 22:05:40 12° SSE visible
18 Jul -0.6 22:43:49 10° SW 22:45:49 21° S 22:45:49 21° S visible
19 Jul -0.4 21:48:31 10° SSW 21:50:49 18° SSE 21:53:04 10° ESE visible
19 Jul 0.1 23:24:35 10° WSW 23:25:32 16° SW 23:25:32 16° SW visible
20 Jul -0.9 22:29:00 10° SW 22:31:45 25° S 22:32:30 23° SSE visible
21 Jul -0.7 21:33:28 10° SW 21:36:06 23° S 21:38:45 10° ESE visible
21 Jul -0.4 23:10:01 10° WSW 23:11:45 21° SW 23:11:45 21° SW visible
22 Jul -0.8 22:14:17 10° WSW 22:17:03 26° S 22:18:26 19° SE visible
23 Jul -0.3 22:55:30 10° WSW 22:57:28 19° SSW 22:57:28 19° SSW visible
24 Jul -0.6 21:59:37 10° WSW 22:02:15 23° S 22:04:01 15° SSE visible
25 Jul 0.1 22:41:14 10° SW 22:42:58 14° SSW 22:42:58 14° SSW visible
